LGL2039 EDDL-LEPA

Flight info

Callsign LGL2039
Flight time N/A
Altitude 39000
Route MODRU7Z/05R MODRU Z283 RITAX UT27 ROUSY DCT GTQ DCT POGOL DCT LASAT DCT MOROK DCT GILIR DCT GEVEA DCT INCUS DCT BALSI DCT RETNO DCT TUPOX DCT MTG DCT DIVKO DCT VATIR N852 VERSO L129 LUNIK
Aircraft B38M/M-SDE1FGHILORVWXY/HB1

Departure

Time 2026-05-06 10:29
Airport Düsseldorf Airport (EDDL)

Arrival

Time N/A
Airport Palma de Mallorca Airport (LEPA)
Time Latitude Longitude Altitude Speed Heading
2026-05-06 09:36 51.28018 6.76422 119 ft 0 kts 208°
2026-05-06 10:16 51.28032 6.76433 120 ft 3 kts 201°
2026-05-06 10:16 51.28056 6.76444 120 ft 3 kts 189°
2026-05-06 10:17 51.28079 6.76446 119 ft 3 kts 172°
2026-05-06 10:17 51.28102 6.76436 116 ft 3 kts 154°
2026-05-06 10:17 51.28122 6.76416 120 ft 3 kts 138°
2026-05-06 10:17 51.28139 6.76388 118 ft 3 kts 126°
2026-05-06 10:18 51.28152 6.76355 120 ft 3 kts 120°
2026-05-06 10:18 51.28165 6.76323 120 ft 3 kts 133°
2026-05-06 10:18 51.28177 6.76309 119 ft 3 kts 203°
2026-05-06 10:18 51.28177 6.76307 120 ft 0 kts 232°
2026-05-06 10:23 51.28177 6.76306 120 ft 0 kts 236°
2026-05-06 10:23 51.28175 6.76289 120 ft 3 kts 268°
2026-05-06 10:24 51.28193 6.76241 118 ft 6 kts 319°
2026-05-06 10:24 51.28201 6.76227 120 ft 2 kts 302°
2026-05-06 10:24 51.28195 6.76156 118 ft 9 kts 239°
2026-05-06 10:24 51.28156 6.76074 117 ft 9 kts 233°
2026-05-06 10:25 51.28118 6.75996 121 ft 9 kts 232°
2026-05-06 10:25 51.28083 6.75923 117 ft 8 kts 232°
2026-05-06 10:25 51.28049 6.75852 119 ft 8 kts 232°
2026-05-06 10:25 51.28017 6.75784 120 ft 8 kts 232°
2026-05-06 10:26 51.27984 6.75716 116 ft 8 kts 232°
2026-05-06 10:26 51.27950 6.75643 119 ft 9 kts 233°
2026-05-06 10:26 51.27911 6.75562 118 ft 10 kts 232°
2026-05-06 10:26 51.27869 6.75472 115 ft 11 kts 233°
2026-05-06 10:27 51.27843 6.75391 120 ft 3 kts 265°
2026-05-06 10:27 51.27847 6.75354 117 ft 8 kts 287°
2026-05-06 10:27 51.27870 6.75304 117 ft 2 kts 328°
2026-05-06 10:27 51.27920 6.75282 118 ft 11 kts 345°
2026-05-06 10:28 51.27976 6.75255 117 ft 3 kts
2026-05-06 10:28 51.27994 6.75274 117 ft 6 kts 43°
2026-05-06 10:28 51.28037 6.75359 117 ft 14 kts 53°
2026-05-06 10:28 51.28192 6.75683 119 ft 72 kts 52°
2026-05-06 10:29 51.28641 6.76625 117 ft 138 kts 52°
2026-05-06 10:29 51.29311 6.78019 323 ft 172 kts 53°
2026-05-06 10:29 51.30036 6.79622 1080 ft 177 kts 54°
2026-05-06 10:29 51.30716 6.81222 1951 ft 174 kts 52°
2026-05-06 10:30 51.31511 6.82843 2311 ft 198 kts 51°
2026-05-06 10:30 51.32407 6.84677 2652 ft 224 kts 52°
2026-05-06 10:30 51.33396 6.86757 3114 ft 244 kts 53°
2026-05-06 10:30 51.34419 6.88912 3981 ft 244 kts 46°
2026-05-06 10:31 51.35856 6.90393 4650 ft 255 kts 19°
2026-05-06 10:31 51.37633 6.91054 4793 ft 267 kts 10°
2026-05-06 10:31 51.39482 6.91582 4910 ft 273 kts
2026-05-06 10:31 51.41363 6.92105 5027 ft 275 kts
2026-05-06 10:32 51.43253 6.92622 5081 ft 276 kts
2026-05-06 10:32 51.45146 6.93133 5089 ft 276 kts
2026-05-06 10:32 51.47050 6.93512 5072 ft 275 kts 356°
2026-05-06 10:32 51.48865 6.92704 5073 ft 272 kts 328°
2026-05-06 10:33 51.50259 6.90693 5092 ft 270 kts 303°
2026-05-06 10:33 51.51107 6.88014 5098 ft 270 kts 291°
2026-05-06 10:33 51.51824 6.85233 5088 ft 270 kts 291°
2026-05-06 10:33 51.52534 6.82394 5087 ft 270 kts 290°
2026-05-06 10:34 51.53223 6.79591 5088 ft 270 kts 290°
2026-05-06 10:34 51.53897 6.76811 5089 ft 270 kts 290°
2026-05-06 10:34 51.54573 6.74003 5088 ft 270 kts 290°
2026-05-06 10:34 51.55246 6.71189 5086 ft 270 kts 290°
2026-05-06 10:35 51.55777 6.68312 5065 ft 268 kts 273°
2026-05-06 10:35 51.55510 6.65394 5085 ft 265 kts 248°
2026-05-06 10:35 51.54726 6.62707 5091 ft 266 kts 243°
2026-05-06 10:35 51.53907 6.60040 5087 ft 267 kts 243°
2026-05-06 10:36 51.53075 6.57381 5087 ft 267 kts 242°
2026-05-06 10:36 51.52231 6.54718 5085 ft 267 kts 242°
2026-05-06 10:36 51.51385 6.52074 5083 ft 266 kts 242°
2026-05-06 10:36 51.50535 6.49429 5149 ft 269 kts 242°
2026-05-06 10:37 51.49676 6.46769 5978 ft 267 kts 242°
2026-05-06 10:37 51.48815 6.44108 6802 ft 271 kts 242°
2026-05-06 10:37 51.47942 6.41413 7634 ft 274 kts 242°
2026-05-06 10:37 51.47060 6.38693 8436 ft 277 kts 242°
2026-05-06 10:38 51.46060 6.36044 9207 ft 279 kts 227°
2026-05-06 10:38 51.44500 6.34232 9977 ft 281 kts 204°
2026-05-06 10:38 51.42647 6.33052 10462 ft 296 kts 201°
2026-05-06 10:38 51.40671 6.31834 10869 ft 311 kts 201°
2026-05-06 10:39 51.38608 6.30585 11431 ft 320 kts 201°
2026-05-06 10:39 51.36515 6.29334 12252 ft 322 kts 201°
2026-05-06 10:39 51.34406 6.28084 13054 ft 325 kts 201°
2026-05-06 10:39 51.32270 6.26825 13809 ft 329 kts 201°
2026-05-06 10:40 51.30111 6.25555 14595 ft 333 kts 201°
2026-05-06 10:40 51.27925 6.24271 15383 ft 336 kts 201°
2026-05-06 10:40 51.25716 6.22976 16120 ft 340 kts 201°
2026-05-06 10:40 51.23483 6.21669 16832 ft 344 kts 201°
2026-05-06 10:41 51.21221 6.20345 17540 ft 347 kts 201°
2026-05-06 10:41 51.18944 6.19013 18215 ft 351 kts 201°
2026-05-06 10:41 51.16638 6.17667 18866 ft 354 kts 201°
2026-05-06 10:41 51.14317 6.16313 19486 ft 357 kts 201°
2026-05-06 10:42 51.11972 6.14947 20092 ft 360 kts 201°
2026-05-06 10:42 51.09652 6.13596 20679 ft 363 kts 201°
2026-05-06 10:42 51.07224 6.12185 21278 ft 366 kts 201°
2026-05-06 10:42 51.04820 6.10789 21846 ft 369 kts 201°
2026-05-06 10:43 51.02402 6.09375 22408 ft 372 kts 203°
2026-05-06 10:43 51.00140 6.07393 22976 ft 372 kts 213°
2026-05-06 10:43 50.97957 6.05230 23489 ft 376 kts 212°
2026-05-06 10:44 50.93433 6.00943 24559 ft 382 kts 209°
2026-05-06 10:44 50.91085 5.98952 25086 ft 384 kts 209°
2026-05-06 10:44 50.88731 5.96937 25589 ft 387 kts 210°
2026-05-06 10:44 50.86360 5.94897 26080 ft 389 kts 210°
2026-05-06 10:45 50.83979 5.92849 26582 ft 390 kts 210°
2026-05-06 10:45 50.81593 5.90795 27091 ft 391 kts 210°
2026-05-06 10:45 50.79199 5.88737 27568 ft 393 kts 210°
2026-05-06 10:45 50.76795 5.86671 28046 ft 393 kts 210°
2026-05-06 10:46 50.74393 5.84598 28506 ft 394 kts 210°
2026-05-06 10:46 50.71981 5.82521 28979 ft 395 kts 210°
2026-05-06 10:46 50.69567 5.80446 29401 ft 396 kts 210°
2026-05-06 10:46 50.67142 5.78361 29810 ft 397 kts 210°
2026-05-06 10:47 50.64715 5.76279 30241 ft 398 kts 210°
2026-05-06 10:47 50.62279 5.74190 30631 ft 399 kts 210°
2026-05-06 10:47 50.59759 5.72324 30980 ft 404 kts 199°
2026-05-06 10:47 50.56965 5.71657 31386 ft 411 kts 184°
2026-05-06 10:48 50.54096 5.72035 31751 ft 416 kts 179°
2026-05-06 10:48 50.51201 5.72515 32055 ft 419 kts 179°
2026-05-06 10:48 50.48299 5.73029 32392 ft 421 kts 178°
2026-05-06 10:48 50.45390 5.73567 32716 ft 423 kts 178°
2026-05-06 10:49 50.42466 5.74119 33033 ft 424 kts 178°
2026-05-06 10:49 50.39537 5.74677 33471 ft 423 kts 178°
2026-05-06 10:49 50.36623 5.75232 33902 ft 421 kts 179°
2026-05-06 10:49 50.33718 5.75785 34319 ft 420 kts 179°
2026-05-06 10:50 50.30819 5.76338 34712 ft 419 kts 179°
2026-05-06 10:50 50.27919 5.76889 34996 ft 421 kts 178°
2026-05-06 10:50 50.25011 5.77440 35309 ft 421 kts 178°
2026-05-06 10:50 50.22097 5.77992 35612 ft 421 kts 178°
2026-05-06 10:51 50.19185 5.78544 35904 ft 422 kts 178°
2026-05-06 10:51 50.16271 5.79094 36183 ft 423 kts 178°
2026-05-06 10:51 50.13345 5.79646 36428 ft 424 kts 178°
2026-05-06 10:51 50.10413 5.80199 36649 ft 425 kts 177°
2026-05-06 10:52 50.07486 5.80894 36933 ft 429 kts 169°
2026-05-06 10:52 50.04646 5.82353 37300 ft 428 kts 166°
2026-05-06 10:52 50.01820 5.83798 37592 ft 427 kts 166°
2026-05-06 10:52 49.99003 5.85245 37848 ft 427 kts 166°
2026-05-06 10:53 49.96175 5.86703 38040 ft 428 kts 166°
2026-05-06 10:53 49.93356 5.88157 38257 ft 428 kts 165°
2026-05-06 10:53 49.90525 5.89616 38435 ft 429 kts 165°
2026-05-06 10:53 49.87688 5.91076 38616 ft 430 kts 165°
2026-05-06 10:54 49.84847 5.92536 38812 ft 430 kts 165°
2026-05-06 10:54 49.81996 5.94000 38913 ft 432 kts 165°
2026-05-06 10:54 49.79181 5.95444 38904 ft 432 kts 165°
2026-05-06 10:55 49.73490 5.98357 38905 ft 431 kts 165°
2026-05-06 10:55 49.67797 6.01264 38908 ft 431 kts 165°
2026-05-06 10:56 49.62113 6.04159 38909 ft 430 kts 165°
2026-05-06 10:56 49.56425 6.07048 38912 ft 430 kts 165°
2026-05-06 10:57 49.50733 6.09936 38915 ft 431 kts 165°
2026-05-06 10:57 49.47955 6.11674 38896 ft 434 kts 152°
2026-05-06 10:57 49.45501 6.14406 38939 ft 437 kts 146°
2026-05-06 10:58 49.40694 6.20175 38906 ft 439 kts 145°
2026-05-06 10:58 49.35916 6.26035 38901 ft 439 kts 145°
2026-05-06 10:59 49.31153 6.31908 38904 ft 439 kts 144°
2026-05-06 10:59 49.26395 6.37763 38911 ft 439 kts 144°
2026-05-06 11:00 49.21634 6.43608 38908 ft 438 kts 144°
2026-05-06 11:00 49.16876 6.49434 38913 ft 438 kts 144°
2026-05-06 11:01 49.12121 6.55241 38915 ft 438 kts 145°
2026-05-06 11:01 49.07363 6.61038 38914 ft 437 kts 145°
2026-05-06 11:02 49.02612 6.66814 38914 ft 437 kts 145°
2026-05-06 11:02 49.00096 6.69335 38896 ft 429 kts 158°
2026-05-06 11:02 48.97284 6.70686 38929 ft 422 kts 174°
2026-05-06 11:03 48.91424 6.71118 38914 ft 422 kts 181°
2026-05-06 11:03 48.85550 6.71061 38913 ft 422 kts 183°
2026-05-06 11:04 48.79682 6.70873 38913 ft 422 kts 183°
2026-05-06 11:04 48.73810 6.70649 38914 ft 422 kts 183°
2026-05-06 11:05 48.67935 6.70420 38919 ft 423 kts 183°
2026-05-06 11:05 48.62058 6.70192 38915 ft 423 kts 183°
2026-05-06 11:06 48.56178 6.69964 38913 ft 422 kts 183°
2026-05-06 11:06 48.50300 6.69737 38918 ft 423 kts 183°
2026-05-06 11:07 48.44423 6.69510 38917 ft 423 kts 183°
2026-05-06 11:07 48.39535 6.69322 38917 ft 423 kts 183°
2026-05-06 11:08 48.33642 6.69095 38914 ft 423 kts 183°
2026-05-06 11:08 48.27752 6.68868 38913 ft 424 kts 183°
2026-05-06 11:09 48.21858 6.68642 38916 ft 424 kts 183°
2026-05-06 11:09 48.15970 6.68416 38885 ft 422 kts 182°
2026-05-06 11:10 48.10100 6.68192 38909 ft 423 kts 182°
2026-05-06 11:10 48.04204 6.67969 38947 ft 424 kts 183°
2026-05-06 11:11 47.98307 6.67746 38910 ft 424 kts 183°
2026-05-06 11:11 47.92391 6.67522 38937 ft 426 kts 183°
2026-05-06 11:12 47.86453 6.67303 38910 ft 426 kts 183°
2026-05-06 11:12 47.80533 6.67073 38911 ft 427 kts 182°
2026-05-06 11:13 47.74626 6.66858 38945 ft 425 kts 182°
2026-05-06 11:13 47.68702 6.66635 38890 ft 425 kts 183°
2026-05-06 11:14 47.62796 6.66410 38915 ft 425 kts 183°
2026-05-06 11:14 47.56880 6.66190 38915 ft 425 kts 183°
2026-05-06 11:15 47.50968 6.65970 38919 ft 425 kts 183°
2026-05-06 11:15 47.45056 6.65750 38926 ft 425 kts 183°
2026-05-06 11:15 47.42114 6.65410 38902 ft 423 kts 194°
2026-05-06 11:16 47.39369 6.63980 38936 ft 418 kts 210°
2026-05-06 11:16 47.34635 6.58947 38912 ft 421 kts 218°
2026-05-06 11:17 47.30128 6.53509 38925 ft 422 kts 220°
2026-05-06 11:17 47.25645 6.47949 38939 ft 422 kts 220°
2026-05-06 11:18 47.21172 6.42366 38936 ft 422 kts 220°
2026-05-06 11:18 47.16696 6.36786 38929 ft 422 kts 220°
2026-05-06 11:19 47.12222 6.31221 38933 ft 421 kts 220°
2026-05-06 11:19 47.07651 6.25868 38910 ft 421 kts 209°
2026-05-06 11:19 47.04935 6.24300 38937 ft 421 kts 193°
2026-05-06 11:20 47.02028 6.23617 38938 ft 425 kts 189°
2026-05-06 11:20 46.96131 6.22612 38944 ft 427 kts 188°
2026-05-06 11:21 46.90221 6.21770 38946 ft 427 kts 187°
2026-05-06 11:21 46.84300 6.20974 38943 ft 427 kts 187°
2026-05-06 11:22 46.78373 6.20186 38945 ft 428 kts 188°
2026-05-06 11:22 46.72447 6.19399 38944 ft 428 kts 188°
2026-05-06 11:23 46.66511 6.18615 38951 ft 428 kts 188°
2026-05-06 11:23 46.60578 6.17831 38953 ft 429 kts 188°